Flag for U.S.A. Weather past 2 weeks in Montpelier, Vermont, U.S.A.

Now
3 °F

Clear.


Feels Like: -11 °F
Forecast: -9 / 8 °F
Wind: 8 mph from Northwest

Location: Knapp State Airport

Current Time: Jan 31, 2015 at 7:53:13 PM

Latest Report: Jan 31, 2015 at 6:51 PM


Visibility: 10 mi

Pressure: 30.17 "Hg

Humidity: 49%

Dew point: -12 °F

Location of MontpelierLocation

Historic Weather in Montpelier — Graph

°F

Montpelier temperature yesterday

Maximum temperature yesterday: 26 °F (at 11:51 AM)
Minimum temperature yesterday: 3 °F (at 11:51 PM)
Average temperature yesterday: 18 °F

Past Weeks' High & Low Weather Summary

 TemperatureHumidityPressure
High37 °F (Jan 18, 4:51 PM)100% (Jan 18, 7:51 PM)30.45 "Hg (Jan 18, 7:51 PM)
Low-11 °F (Jan 26, 7:51 AM)31% (Jan 29, 1:51 PM)29.29 "Hg (Jan 24, 11:00 PM)
Average13 °F74%30.01 "Hg
* Reported Jan 16 6:51 PM — Jan 31 6:51 PM, Montpelier, Weather by CustomWeather, © 2014

Note: Actual official high and low records may vary slightly from our data, if they occured in-between our weather recording intervals... More about our weather records

Advertising

Montpelier weather history for previous 24 hours

 ConditionsComfort  
Time TempWeatherWind HumidityBarometerVisibility
6:51 PM
Jan 31
3 °FClear.8 mph49%30.17 "Hg10 mi
5:51 PM3 °FClear.12 mph49%30.16 "Hg10 mi
4:51 PM4 °FSunny.15 mph47%30.13 "Hg10 mi
3:51 PM5 °FSunny.9 mph45%30.13 "Hg10 mi
2:51 PM5 °FSunny.N/A40%30.13 "Hg10 mi
1:51 PM2 °FSunny.8 mph46%30.13 "Hg9 mi
12:51 PM2 °FSunny.15 mph52%30.11 "Hg9 mi
11:51 AM0 °FSunny.12 mph57%30.14 "Hg10 mi
10:51 AM-3 °FSunny.13 mph61%30.16 "Hg10 mi
9:51 AM-5 °FSunny.14 mph64%30.16 "Hg10 mi
8:51 AM-7 °FSunny.16 mph71%30.17 "Hg10 mi
7:51 AM-8 °FSunny.14 mph74%30.17 "Hg7 mi
6:51 AM-7 °FPassing clouds.9 mph75%30.16 "Hg7 mi
5:51 AM-6 °FPassing clouds.10 mph75%30.13 "Hg5 mi
4:51 AM-5 °FOvercast.13 mph75%30.10 "Hg3 mi
3:51 AM-4 °FLight snow. Overcast.12 mph79%30.09 "Hg2 mi
2:59 AM-2 °FLight snow. Overcast.12 mph78%30.01 "Hg1 mi
1:51 AM0 °FLight snow. Overcast.13 mph79%30.08 "Hg2 mi
12:54 AM1 °FLight snow. Ice fog.14 mph83%29.98 "Hg2 mi
12:03 AM2 °FLight snow. Ice fog.12 mph83%29.98 "Hg2 mi
11:51 PM
Jan 30
3 °FLight snow. Low clouds.13 mph79%30.06 "Hg1 mi
10:51 PM4 °FLight snow. Ice fog.13 mph84%30.04 "Hg1 mi
9:51 PM6 °FLight snow. Overcast.12 mph79%30.04 "Hg1 mi
8:51 PM7 °FLight snow. Ice fog.14 mph83%30.04 "Hg1 mi
8:03 PM8 °FLight snow. Mostly cloudy.13 mph79%29.97 "Hg1 mi
7:57 PM8 °FLight snow. Mostly cloudy.12 mph79%29.97 "Hg2 mi
Weather by CustomWeather, © 2014

See weather overviewHow to use our weather pages